Location: Ferques
(50.8300°N, 1.7599°E)
Time: 16:04:42
(UTC+00:00)

Cosmos 1934 Rocket - Pass Details

Date: 19 May 2025
Orbit: 938 x 997 km, 83.0° (Epoch: 12 June)

Event Time Altitude Azimuth Distance (km) Brightness Sun altitude
Rises 23:08:04 0° 347° (NNW) 3,668 8.7 -18.6°
Reaches altitude 10° 23:10:36 10° 344° (NNW) 2,725 7.6 -18.7°
Maximum altitude 23:16:42 59° 267° (W) 1,126 4.3 -18.8°
Enters shadow 23:20:03 28° 199° (SSW) 1,768 4.9 -18.9°
